• In Kazakhstan
  • List of Countries
  • For 7 days
  • Water Temperature
  • Weather Map
  • News
  • Weather Widgets
  • user-avatar
    Login

    Hourly Weather Smolan

    Today, 22 February, Saturday

    Time Temperature Precipitation Wind Pressure Humidity
    00:00 -2°C° 0 mm 1 mps 655 mmHg 88%
    01:00 -2°C° 0 mm 1 mps 655 mmHg 87%
    02:00 -1°C° 0 mm 1 mps 656 mmHg 85%
    03:00 -1°C° 0.1 mm 1 mps 656 mmHg 85%
    04:00 -1°C° 0.1 mm 1 mps 656 mmHg 85%
    05:00 -1°C° 0.1 mm 1 mps 656 mmHg 86%
    06:00 -1°C° 0 mm 1 mps 656 mmHg 84%
    07:00 -3°C° 0 mm 2 mps 656 mmHg 83%
    08:00 -3°C° 0 mm 2 mps 657 mmHg 82%
    09:00 -2°C° 0 mm 2 mps 657 mmHg 74%
    10:00 -1°C° 0 mm 2 mps 658 mmHg 66%
    11:00 +1°C° 0 mm 2 mps 659 mmHg 58%
    12:00 +1°C° 0 mm 3 mps 659 mmHg 57%
    13:00 +1°C° 0 mm 3 mps 659 mmHg 56%
    14:00 +1°C° 0 mm 3 mps 659 mmHg 56%
    15:00 +1°C° 0 mm 3 mps 659 mmHg 61%
    16:00 0°C° 0 mm 3 mps 659 mmHg 65%
    17:00 -1°C° 0 mm 3 mps 659 mmHg 69%
    18:00 -2°C° 0.1 mm 2 mps 659 mmHg 76%
    19:00 -3°C° 0.1 mm 2 mps 659 mmHg 83%
    20:00 -1°C° 0.1 mm 1 mps 659 mmHg 89%
    21:00 -2°C° 0 mm 1 mps 659 mmHg 90%
    22:00 -2°C° 0 mm 1 mps 659 mmHg 90%
    23:00 -2°C° 0 mm 1 mps 659 mmHg 91%

    Tomorrow, 23 February, Sunday

    Time Temperature Precipitation Wind Pressure Humidity
    00:00 -3°C° 0 mm 1 mps 659 mmHg 89%
    01:00 -3°C° 0 mm 1 mps 659 mmHg 88%
    02:00 -3°C° 0 mm 1 mps 659 mmHg 86%
    03:00 -3°C° 0 mm 1 mps 659 mmHg 84%
    04:00 -3°C° 0 mm 1 mps 658 mmHg 82%
    05:00 -3°C° 0 mm 1 mps 658 mmHg 80%
    06:00 -2°C° 0 mm 1 mps 658 mmHg 75%
    07:00 -2°C° 0 mm 1 mps 658 mmHg 69%
    08:00 -1°C° 0 mm 1 mps 659 mmHg 64%
    09:00 +1°C° 0 mm 1 mps 659 mmHg 55%
    10:00 +3°C° 0 mm 1 mps 660 mmHg 46%
    11:00 +6°C° 0 mm 1 mps 660 mmHg 38%
    12:00 +7°C° 0 mm 1 mps 660 mmHg 38%
    13:00 +8°C° 0 mm 1 mps 660 mmHg 38%
    14:00 +8°C° 0 mm 1 mps 660 mmHg 38%
    15:00 +7°C° 0 mm 1 mps 659 mmHg 46%
    16:00 +7°C° 0 mm 1 mps 658 mmHg 53%
    17:00 +6°C° 0 mm 1 mps 657 mmHg 60%
    18:00 +5°C° 0 mm 1 mps 657 mmHg 62%
    19:00 +3°C° 0 mm 1 mps 657 mmHg 64%
    20:00 +2°C° 0 mm 1 mps 656 mmHg 66%
    21:00 +2°C° 0 mm 1 mps 656 mmHg 64%
    22:00 +3°C° 0 mm 1 mps 656 mmHg 62%
    23:00 +2°C° 0 mm 2 mps 655 mmHg 60%

    Day after tomorrow, 24 February, Monday

    Time Temperature Precipitation Wind Pressure Humidity
    00:00 +2°C° 0 mm 2 mps 655 mmHg 60%
    01:00 +2°C° 0 mm 2 mps 655 mmHg 60%
    02:00 +2°C° 0 mm 2 mps 654 mmHg 60%
    03:00 +2°C° 0 mm 2 mps 654 mmHg 58%
    04:00 +2°C° 0 mm 2 mps 653 mmHg 57%
    05:00 +2°C° 0 mm 2 mps 652 mmHg 56%
    06:00 +3°C° 0 mm 2 mps 653 mmHg 55%
    07:00 +3°C° 0 mm 2 mps 653 mmHg 54%
    08:00 +5°C° 0 mm 1 mps 653 mmHg 54%
    09:00 +6°C° 0 mm 2 mps 654 mmHg 51%
    10:00 +8°C° 0 mm 2 mps 655 mmHg 48%
    11:00 +10°C° 0 mm 2 mps 656 mmHg 45%
    12:00 +10°C° 0 mm 2 mps 656 mmHg 45%
    13:00 +10°C° 0 mm 2 mps 656 mmHg 46%
    14:00 +10°C° 0 mm 2 mps 656 mmHg 47%
    15:00 +10°C° 0 mm 2 mps 656 mmHg 51%
    16:00 +9°C° 0 mm 2 mps 655 mmHg 55%
    17:00 +8°C° 0 mm 2 mps 655 mmHg 59%
    18:00 +7°C° 0 mm 2 mps 655 mmHg 64%
    19:00 +5°C° 0 mm 2 mps 655 mmHg 69%
    20:00 +4°C° 0 mm 1 mps 655 mmHg 75%
    21:00 +3°C° 0 mm 1 mps 655 mmHg 75%
    22:00 +2°C° 0 mm 1 mps 656 mmHg 76%
    23:00 +1°C° 0 mm 1 mps 656 mmHg 77%

    25 February, Tuesday

    Time Temperature Precipitation Wind Pressure Humidity
    00:00 +1°C° 0 mm 1 mps 656 mmHg 75%
    01:00 +1°C° 0 mm 1 mps 656 mmHg 74%
    02:00 0°C° 0 mm 0 mps 656 mmHg 73%
    03:00 0°C° 0 mm 1 mps 656 mmHg 74%
    04:00 0°C° 0 mm 1 mps 655 mmHg 75%
    05:00 0°C° 0 mm 1 mps 655 mmHg 76%
    06:00 +1°C° 0 mm 1 mps 655 mmHg 78%
    07:00 +1°C° 0 mm 1 mps 655 mmHg 79%
    08:00 +1°C° 0 mm 1 mps 656 mmHg 81%
    09:00 +4°C° 0 mm 1 mps 656 mmHg 73%
    10:00 +6°C° 0 mm 1 mps 656 mmHg 64%
    11:00 +7°C° 0 mm 2 mps 657 mmHg 56%
    12:00 +8°C° 0 mm 2 mps 656 mmHg 55%
    13:00 +8°C° 0 mm 2 mps 656 mmHg 55%
    14:00 +9°C° 0 mm 2 mps 656 mmHg 54%
    15:00 +8°C° 0 mm 2 mps 655 mmHg 59%
    16:00 +7°C° 0 mm 2 mps 654 mmHg 64%
    17:00 +6°C° 0 mm 2 mps 653 mmHg 70%
    18:00 +5°C° 0 mm 2 mps 652 mmHg 75%
    19:00 +3°C° 0 mm 2 mps 652 mmHg 81%
    20:00 +2°C° 0 mm 2 mps 651 mmHg 86%
    21:00 +2°C° 0 mm 2 mps 651 mmHg 86%
    22:00 +2°C° 0 mm 2 mps 650 mmHg 85%
    23:00 +2°C° 0 mm 2 mps 650 mmHg 84%

    26 February, Wednesday

    Time Temperature Precipitation Wind Pressure Humidity
    00:00 +2°C° 0 mm 2 mps 650 mmHg 85%
    01:00 +2°C° 0 mm 2 mps 649 mmHg 85%
    02:00 +1°C° 0 mm 2 mps 649 mmHg 86%
    03:00 +1°C° 0 mm 2 mps 648 mmHg 86%
    04:00 +1°C° 0 mm 2 mps 648 mmHg 87%
    05:00 +2°C° 0 mm 1 mps 647 mmHg 87%
    06:00 +2°C° 0 mm 1 mps 647 mmHg 86%
    07:00 +3°C° 0 mm 1 mps 647 mmHg 85%
    08:00 +3°C° 0 mm 1 mps 647 mmHg 84%
    09:00 +4°C° 0 mm 2 mps 647 mmHg 76%
    10:00 +6°C° 0 mm 2 mps 648 mmHg 68%
    11:00 +8°C° 0 mm 2 mps 648 mmHg 59%
    12:00 +9°C° 0 mm 3 mps 648 mmHg 57%
    13:00 +9°C° 0 mm 3 mps 647 mmHg 54%
    14:00 +10°C° 0 mm 4 mps 647 mmHg 51%
    15:00 +8°C° 0 mm 4 mps 646 mmHg 56%
    16:00 +8°C° 0 mm 3 mps 645 mmHg 61%
    17:00 +7°C° 0 mm 3 mps 645 mmHg 66%
    18:00 +4°C° 0 mm 3 mps 644 mmHg 74%
    19:00 +4°C° 0 mm 2 mps 644 mmHg 81%
    20:00 +3°C° 0 mm 2 mps 644 mmHg 89%
    21:00 +3°C° 0 mm 2 mps 644 mmHg 90%
    22:00 +2°C° 0 mm 2 mps 644 mmHg 92%
    23:00 +2°C° 0 mm 2 mps 644 mmHg 93%

    27 February, Thursday

    Time Temperature Precipitation Wind Pressure Humidity
    00:00 +2°C° 0 mm 2 mps 644 mmHg 93%
    01:00 +2°C° 0 mm 2 mps 644 mmHg 94%
    02:00 +2°C° 0 mm 2 mps 643 mmHg 94%
    03:00 +2°C° 0 mm 2 mps 643 mmHg 93%
    04:00 +2°C° 0 mm 2 mps 643 mmHg 93%
    05:00 +2°C° 0 mm 1 mps 643 mmHg 93%
    06:00 +2°C° 0 mm 2 mps 643 mmHg 93%
    07:00 +2°C° 0 mm 2 mps 643 mmHg 92%
    08:00 +2°C° 0 mm 2 mps 642 mmHg 92%
    09:00 +3°C° 0.1 mm 3 mps 643 mmHg 84%
    10:00 +5°C° 0.1 mm 4 mps 643 mmHg 75%
    11:00 +6°C° 0.1 mm 5 mps 643 mmHg 67%
    12:00 +6°C° 0.5 mm 5 mps 642 mmHg 70%
    13:00 +5°C° 0.5 mm 5 mps 642 mmHg 74%
    14:00 +5°C° 0.5 mm 5 mps 641 mmHg 78%
    15:00 +3°C° 0.7 mm 5 mps 640 mmHg 79%
    16:00 +3°C° 0.7 mm 4 mps 640 mmHg 80%
    17:00 +2°C° 0.7 mm 3 mps 640 mmHg 81%
    18:00 +1°C° 0.1 mm 3 mps 640 mmHg 84%
    19:00 +2°C° 0.1 mm 2 mps 640 mmHg 88%
    20:00 +1°C° 0.1 mm 2 mps 640 mmHg 91%
    21:00 -1°C° 0.2 mm 2 mps 640 mmHg 91%
    22:00 -1°C° 0.2 mm 2 mps 640 mmHg 91%
    23:00 -2°C° 0.2 mm 2 mps 641 mmHg 91%
    Show more